Flag for Brazil Weather past 2 weeks in Rio de Janeiro, Rio de Janeiro, Brazil

Now
72 °F

Sunny.


Feels Like: 74 °F
Forecast: 68 / 85 °F
Wind: 6 mph from Northeast

Location: Rio De Janeiro Airport

Current Time: Jul 24, 2014 at 8:33:09 AM

Latest Report: Jul 24, 2014 at 8:00 AM


Visibility: 10 mi

Pressure: 30.01 "Hg

Humidity: 73%

Dew point: 63 °F

Location of Rio de JaneiroLocation

Historic Weather in Rio de Janeiro — Graph

°F

Rio de Janeiro temperature yesterday

Maximum temperature yesterday: 81 °F (at 1:00 PM)
Minimum temperature yesterday: 72 °F (at 6:00 PM)
Average temperature yesterday: 75 °F

Past Weeks' High & Low Weather Summary

 TemperatureHumidityPressure
High88 °F (Jul 18, 12:00 PM)100% (Jul 11, 12:00 AM)30.36 "Hg (Jul 11, 12:00 AM)
Low64 °F (Jul 13, 3:00 AM)35% (Jul 14, 2:00 PM)29.95 "Hg (Jul 18, 2:00 PM)
Average72 °F73%30.18 "Hg
* Reported Jul 9 10:00 AM — Jul 24 7:00 AM, Rio de Janeiro, Weather by CustomWeather, © 2014

Note: Actual official high and low records may vary slightly from our data, if they occured in-between our weather recording intervals... More about our weather records

Advertising

Rio de Janeiro weather history for previous 24 hours

 ConditionsComfort  
Time TempWeatherWind HumidityBarometerVisibility
7:00 AM
Jul 24
70 °FSunny.1 mph73%30.01 "Hg10 mi
6:00 AM70 °FSunny.1 mph73%29.98 "Hg10 mi
11:00 PM
Jul 23
72 °FClear.2 mph65%30.04 "Hg10 mi
10:00 PM72 °FClear.3 mph65%30.04 "Hg10 mi
9:00 PM73 °FClear.1 mph61%30.01 "Hg10 mi
8:00 PM73 °FClear.2 mph61%30.01 "Hg10 mi
7:00 PM73 °FClear.5 mph61%30.01 "Hg10 mi
6:00 PM72 °FClear.8 mph69%30.01 "Hg10 mi
5:00 PM75 °FClear.9 mph65%30.01 "Hg10 mi
4:00 PM75 °FSunny.9 mph69%30.01 "Hg10 mi
3:00 PM77 °FSunny.9 mph61%30.01 "Hg10 mi
2:00 PM81 °FSunny.5 mph48%30.04 "Hg10 mi
1:00 PM81 °FSunny.3 mph39%30.07 "Hg10 mi
12:00 PM77 °FSunny.5 mph57%30.09 "Hg10 mi
11:00 AM75 °FSunny.5 mph61%30.15 "Hg10 mi
10:00 AM73 °FSunny.5 mph65%30.15 "Hg10 mi
Weather by CustomWeather, © 2014

See weather overviewHow to use our weather pages